Location: Burbank
(38.7788°N, 114.0429°W)
Time: 21:44:16
(UTC+00:00)

S-56A Canister/Altair - Pass Details

Date: 11 May 2026
Orbit: 632 x 2484 km, 38.9° (Epoch: 8 June)

Event Time Altitude Azimuth Distance (km) Brightness Sun altitude
Rises 04:34:44 0° 228° (SW) 2,954 10.6 -19.7°
Reaches altitude 10° 04:37:11 10° 219° (SW) 2,004 9.6 -20.0°
Enters shadow 04:39:09 23° 201° (SSW) 1,350 8.5 -20.3°
Maximum altitude 04:41:12 35° 152° (SSE) 1,041 - -20.6°
Drops below altitude 10° 04:45:37 10° 87° (E) 2,206 - -21.2°
Sets 04:48:26 0° 78° (ENE) 3,304 - -21.5°
